Iridium 67 - Orbit

View from above orbital plane
View from above orbital plane
View from above satellite
View from above satellite

Ground track
Ground track

The orbit data is extracted from the following two-line orbital elements,

1 25290U 98021F   13142.47825170  .00000055  00000-0  12544-4 0   714
2 25290 086.3961 125.3572 0002290 104.7628 255.3822 14.34212369791930
Epoch (UTC): 22 May 2013 11:28:40
Eccentricity: 0.0002290
inclination: 86.3961°
perigee height: 776 km
apogee height: 779 km
right ascension of ascending node: 125.3572°
argument of perigee: 104.7628°
revolutions per day: 14.34212369
mean anomaly at epoch: 255.3822°
orbit number at epoch: 79193

The dashed part of the orbit path shows where the satellite is in the earth's shadow,  

Developed and maintained by Chris Peat, Heavens-Above GmbH. Please read the updated FAQ before sending e-mail. Imprint. DLR